Tracking 19490 objects as of 24-Jan-2019
HD Live streaming from Space Station
objects crossing your sky now

OBJECT F

Track OBJECT F now!
10-day predictions


NORAD ID: 43763
Int'l Code: 2018-099F
Perigee: 577.8 km
Apogee: 598.3 km
Inclination: 97.8 °
Period: 96.3 minutes
Semi major axis: 6959 km
RCS: Unknown
Launch date: December 3, 2018
Source: (TBD)
Launch site: AIR FORCE WESTERN TEST RANGE (AFWTR)
aabbcc
Your satellite tracking list
Your tracking list is empty




NASA's NSSDC Master Catalog

Two Line Element Set (TLE):
1 43763U 18099F   19023.53623758 -.00000247  00000-0 -17045-4 0  9990
2 43763  97.7611  97.2179 0014687  94.1891 266.1027 14.95475551  7590
Source of the keplerian elements: AFSPC